MDT,Max TemperatureF,Mean TemperatureF,Min TemperatureF,Max Dew PointF,MeanDew PointF,Min DewpointF,Max Humidity, Mean Humidity, Min Humidity, Max Sea Level PressureIn, Mean Sea Level PressureIn, Min Sea Level PressureIn, Max VisibilityMiles, Mean VisibilityMiles, Min VisibilityMiles, Max Wind SpeedMPH, Mean Wind SpeedMPH, Max Gust SpeedMPH,PrecipitationIn, CloudCover, Events, WindDirDegrees
2013-10-1,55,47,39,32,28,25,75,44,31,30.14,30.10,30.06,10,10,10,34,20,47,0.00,0,,158
2013-10-2,53,42,32,36,32,25,100,76,33,30.20,30.12,30.05,10,8,0,23,11,,0.00,6,Rain-Snow,331
2013-10-3,35,30,24,34,30,23,100,98,93,30.08,29.99,29.90,10,1,0,50,20,52,0.00,8,Fog-Rain-Snow,13
2013-10-4,24,22,21,23,21,19,100,94,93,30.36,30.25,30.04,,,,64,49,75,0.00,8,,309
2013-10-5,41,31,21,27,18,7,100,68,28,30.43,30.37,30.34,10,10,10,33,17,,0.00,0,,300
2013-10-6,44,42,41,36,28,23,81,58,46,30.42,30.39,30.32,10,10,10,17,9,,0.00,0,,152
2013-10-7,53,45,37,37,33,27,93,65,35,30.31,30.16,30.02,10,10,10,24,13,26,0.00,0,,144
2013-10-8,53,44,35,37,31,21,93,58,30,30.04,29.96,29.90,10,10,10,25,9,,0.00,1,,131
2013-10-9,39,36,32,34,33,30,100,89,81,30.15,30.09,30.04,10,10,10,22,12,25,0.00,7,Rain-Snow,313
2013-10-10,41,37,33,37,35,32,100,93,81,30.04,29.87,29.74,10,6,0,43,13,46,0.00,5,Fog-Rain-Snow,150
2013-10-11,35,34,32,36,30,21,100,88,60,30.16,29.97,29.74,10,7,0,59,38,66,0.00,7,Rain-Snow,318
2013-10-12,41,36,30,30,24,12,87,68,33,30.20,30.17,30.14,10,10,10,18,11,21,0.00,2,,140
2013-10-13,39,34,30,32,29,25,100,86,65,30.19,30.15,30.10,10,8,0,25,11,18,0.00,7,Snow,337
2013-10-14,30,28,26,30,27,25,100,96,93,30.35,30.16,30.06,,,,60,42,66,0.00,8,,304
2013-10-15,26,24,23,25,23,21,100,89,80,30.38,30.32,30.24,,,,38,23,41,0.00,8,,283
2013-10-16,35,30,26,28,22,10,93,69,35,30.23,30.16,30.11,10,10,10,24,10,,0.00,1,,193
2013-10-17,30,28,26,28,27,25,100,96,86,30.20,30.17,30.13,10,5,0,25,18,31,0.00,8,Fog-Snow,316
2013-10-18,32,29,26,28,24,19,100,77,64,30.29,30.22,30.17,10,10,10,43,20,46,0.00,4,,230
2013-10-19,44,38,33,30,22,12,65,48,31,30.18,30.10,30.06,10,10,10,14,7,,0.00,1,,200
2013-10-20,41,36,30,32,30,25,100,90,53,30.21,30.13,30.06,10,7,0,47,27,51,0.00,6,Fog-Snow,308
2013-10-21,46,39,32,28,26,21,87,61,37,30.30,30.25,30.21,10,10,10,17,10,,0.00,2,,256
2013-10-22,53,47,41,32,30,19,66,56,26,30.34,30.30,30.26,10,10,10,17,9,22,0.00,0,,228
2013-10-23,46,44,42,34,31,25,66,60,43,30.34,30.32,30.29,10,10,10,17,8,,0.00,0,,328
2013-10-24,46,40,35,34,32,28,87,69,57,30.37,30.34,30.31,10,10,10,12,3,,0.00,0,,131
2013-10-25,53,46,39,34,28,21,76,52,30,30.44,30.35,30.31,10,10,10,30,11,,0.00,0,,290
2013-10-26,53,45,37,32,29,18,70,55,24,30.46,30.39,30.26,10,10,10,14,9,,0.00,0,,149
2013-10-27,51,43,35,27,22,16,70,40,24,30.24,30.05,29.96,10,10,5,25,10,36,0.00,1,,199
2013-10-28,35,28,21,30,24,19,100,94,70,30.06,30.02,29.99,10,5,0,28,20,,0.00,8,Fog-Snow,319
2013-10-29,26,22,21,25,23,21,100,97,93,30.02,29.95,29.90,,,,28,7,48,0.00,8,,137
2013-10-30,35,30,24,30,25,21,100,80,56,29.93,29.89,29.86,10,9,0,10,4,,0.00,2,Fog,117
2013-10-31,42,36,30,32,26,23,93,72,46,30.04,29.94,29.90,10,10,3,23,8,29,0.00,3,Snow,231